User: anonymous   Login
Location: Unspecified
(0.0000°N, 0.0000°E)
Time: 10:34:01
(UTC+02:00)
Language:

Ariane H10 - Orbit

View from above orbital plane
View from above orbital plane
View from above satellite
View from above satellite

Ground track
Ground track

The orbit data is extracted from the following two-line orbital elements,

1 19122U 88040B   17112.97260860 -.00000163 +00000-0 -11705-2 0  9993
2 19122 006.8446 195.7248 7137384 092.0703 343.4270 02.33388208195651
Epoch (UTC): 22 April 2017 23:20:33
Eccentricity: 0.7137384
inclination: 6.8446°
perigee height: 494 km
apogee height: 34764 km
right ascension of ascending node: 195.7248°
argument of perigee: 92.0703°
revolutions per day: 2.33388208
mean anomaly at epoch: 343.4270°
orbit number at epoch: 19565

The dashed part of the orbit path shows where the satellite is in the earth's shadow,  

DLR